• In Russia
  • List of Countries
  • For 7 days
  • Water Temperature
  • Satellite Maps
  • Weather Map
  • Weather Widgets
  • user-avatar
    Login

    Hourly Weather Djibouti

    Today, 19 January, Saturday

    Time Temperature Precipitation Wind Pressure Humidity
    00:00 +27°C° 0 mm 2 mps 759 mmHg 73%
    01:00 +27°C° 0 mm 2 mps 759 mmHg 75%
    02:00 +27°C° 0 mm 1 mps 759 mmHg 76%
    03:00 +26°C° 0 mm 1 mps 759 mmHg 78%
    04:00 +26°C° 0 mm 1 mps 760 mmHg 79%
    05:00 +24°C° 0 mm 0 mps 760 mmHg 81%
    06:00 +24°C° 0 mm 0 mps 760 mmHg 83%
    07:00 +24°C° 0 mm 0 mps 760 mmHg 79%
    08:00 +27°C° 0 mm 1 mps 761 mmHg 76%
    09:00 +27°C° 0 mm 1 mps 761 mmHg 72%
    10:00 +28°C° 0 mm 2 mps 761 mmHg 66%
    11:00 +29°C° 0 mm 2 mps 761 mmHg 61%
    12:00 +31°C° 0 mm 3 mps 760 mmHg 55%
    13:00 +31°C° 0 mm 3 mps 760 mmHg 53%
    14:00 +32°C° 0 mm 4 mps 759 mmHg 52%
    15:00 +33°C° 0 mm 4 mps 758 mmHg 50%
    16:00 +32°C° 0 mm 4 mps 759 mmHg 54%
    17:00 +30°C° 0 mm 4 mps 759 mmHg 58%
    18:00 +29°C° 0 mm 4 mps 759 mmHg 62%
    19:00 +28°C° 0 mm 3 mps 759 mmHg 63%
    20:00 +28°C° 0 mm 3 mps 760 mmHg 64%
    21:00 +28°C° 0 mm 2 mps 760 mmHg 65%
    22:00 +27°C° 0 mm 2 mps 760 mmHg 66%
    23:00 +27°C° 0 mm 2 mps 760 mmHg 68%

    Tomorrow, 20 January, Sunday

    Time Temperature Precipitation Wind Pressure Humidity
    00:00 +27°C° 0 mm 2 mps 760 mmHg 69%
    01:00 +26°C° 0 mm 2 mps 760 mmHg 71%
    02:00 +26°C° 0 mm 2 mps 760 mmHg 73%
    03:00 +26°C° 0 mm 1 mps 760 mmHg 75%
    04:00 +26°C° 0 mm 1 mps 760 mmHg 77%
    05:00 +25°C° 0 mm 1 mps 760 mmHg 79%
    06:00 +25°C° 0 mm 1 mps 760 mmHg 80%
    07:00 +26°C° 0 mm 1 mps 761 mmHg 76%
    08:00 +27°C° 0 mm 1 mps 762 mmHg 72%
    09:00 +27°C° 0 mm 2 mps 762 mmHg 67%
    10:00 +28°C° 0 mm 2 mps 762 mmHg 63%
    11:00 +29°C° 0 mm 3 mps 762 mmHg 58%
    12:00 +30°C° 0 mm 3 mps 761 mmHg 54%
    13:00 +32°C° 0 mm 4 mps 761 mmHg 53%
    14:00 +32°C° 0 mm 4 mps 760 mmHg 52%
    15:00 +32°C° 0 mm 4 mps 759 mmHg 51%
    16:00 +30°C° 0 mm 4 mps 759 mmHg 55%
    17:00 +30°C° 0 mm 4 mps 760 mmHg 59%
    18:00 +29°C° 0 mm 4 mps 760 mmHg 63%
    19:00 +28°C° 0 mm 4 mps 760 mmHg 66%
    20:00 +28°C° 0 mm 3 mps 761 mmHg 69%
    21:00 +27°C° 0 mm 3 mps 762 mmHg 72%
    22:00 +27°C° 0 mm 3 mps 761 mmHg 73%
    23:00 +27°C° 0 mm 3 mps 761 mmHg 75%

    Day after tomorrow, 21 January, Monday

    Time Temperature Precipitation Wind Pressure Humidity
    00:00 +27°C° 0 mm 3 mps 761 mmHg 76%
    01:00 +27°C° 0 mm 3 mps 761 mmHg 76%
    02:00 +26°C° 0 mm 3 mps 761 mmHg 75%
    03:00 +26°C° 0 mm 2 mps 760 mmHg 75%
    04:00 +26°C° 0.1 mm 2 mps 760 mmHg 75%
    05:00 +26°C° 0.1 mm 2 mps 761 mmHg 75%
    06:00 +26°C° 0.1 mm 2 mps 761 mmHg 74%
    07:00 +27°C° 0 mm 2 mps 761 mmHg 72%
    08:00 +27°C° 0 mm 2 mps 762 mmHg 69%
    09:00 +28°C° 0 mm 2 mps 763 mmHg 67%
    10:00 +29°C° 0 mm 3 mps 762 mmHg 62%
    11:00 +30°C° 0 mm 3 mps 762 mmHg 58%
    12:00 +32°C° 0 mm 4 mps 761 mmHg 53%
    13:00 +32°C° 0 mm 4 mps 761 mmHg 52%
    14:00 +32°C° 0 mm 4 mps 760 mmHg 52%
    15:00 +33°C° 0 mm 5 mps 759 mmHg 51%
    16:00 +32°C° 0 mm 5 mps 759 mmHg 55%
    17:00 +30°C° 0 mm 4 mps 759 mmHg 59%
    18:00 +29°C° 0 mm 4 mps 759 mmHg 63%
    19:00 +29°C° 0 mm 4 mps 760 mmHg 66%
    20:00 +28°C° 0 mm 4 mps 760 mmHg 70%
    21:00 +28°C° 0 mm 3 mps 761 mmHg 73%
    22:00 +28°C° 0.1 mm 3 mps 760 mmHg 74%
    23:00 +27°C° 0.1 mm 3 mps 760 mmHg 75%

    22 January, Tuesday

    Time Temperature Precipitation Wind Pressure Humidity
    00:00 +27°C° 0.1 mm 3 mps 760 mmHg 76%
    01:00 +27°C° 0.1 mm 3 mps 760 mmHg 77%
    02:00 +27°C° 0.1 mm 2 mps 759 mmHg 77%
    03:00 +27°C° 0.1 mm 2 mps 759 mmHg 78%
    04:00 +27°C° 0.1 mm 2 mps 759 mmHg 79%
    05:00 +27°C° 0.1 mm 1 mps 760 mmHg 79%
    06:00 +26°C° 0.1 mm 1 mps 760 mmHg 80%
    07:00 +27°C° 0.1 mm 1 mps 761 mmHg 78%
    08:00 +27°C° 0.1 mm 1 mps 761 mmHg 76%
    09:00 +28°C° 0.1 mm 1 mps 762 mmHg 74%
    10:00 +28°C° 0 mm 2 mps 761 mmHg 70%
    11:00 +29°C° 0 mm 3 mps 761 mmHg 67%
    12:00 +30°C° 0 mm 4 mps 760 mmHg 63%
    13:00 +30°C° 0 mm 4 mps 759 mmHg 62%
    14:00 +32°C° 0 mm 5 mps 758 mmHg 60%
    15:00 +32°C° 0 mm 5 mps 757 mmHg 59%
    16:00 +30°C° 0 mm 5 mps 758 mmHg 62%
    17:00 +29°C° 0 mm 5 mps 758 mmHg 66%
    18:00 +29°C° 0 mm 5 mps 758 mmHg 69%
    19:00 +28°C° 0 mm 4 mps 758 mmHg 71%
    20:00 +28°C° 0 mm 4 mps 759 mmHg 73%
    21:00 +28°C° 0 mm 4 mps 759 mmHg 75%
    22:00 +28°C° 0 mm 3 mps 759 mmHg 76%
    23:00 +27°C° 0 mm 3 mps 759 mmHg 76%

    23 January, Wednesday

    Time Temperature Precipitation Wind Pressure Humidity
    00:00 +27°C° 0 mm 3 mps 759 mmHg 77%
    01:00 +27°C° 0.1 mm 3 mps 758 mmHg 78%
    02:00 +27°C° 0.1 mm 3 mps 758 mmHg 78%
    03:00 +27°C° 0.1 mm 3 mps 758 mmHg 79%
    04:00 +27°C° 0.1 mm 3 mps 758 mmHg 79%
    05:00 +26°C° 0.1 mm 3 mps 758 mmHg 78%
    06:00 +26°C° 0.1 mm 3 mps 759 mmHg 78%
    07:00 +27°C° 0.1 mm 3 mps 759 mmHg 75%
    08:00 +27°C° 0.1 mm 4 mps 760 mmHg 72%
    09:00 +28°C° 0.1 mm 4 mps 761 mmHg 69%
    10:00 +29°C° 0 mm 5 mps 760 mmHg 65%
    11:00 +29°C° 0 mm 5 mps 760 mmHg 61%
    12:00 +30°C° 0 mm 5 mps 760 mmHg 56%
    13:00 +32°C° 0 mm 6 mps 759 mmHg 55%
    14:00 +32°C° 0 mm 6 mps 758 mmHg 53%
    15:00 +32°C° 0 mm 6 mps 757 mmHg 51%
    16:00 +30°C° 0 mm 5 mps 757 mmHg 56%
    17:00 +29°C° 0 mm 5 mps 758 mmHg 60%
    18:00 +28°C° 0 mm 4 mps 758 mmHg 65%
    19:00 +28°C° 0 mm 4 mps 759 mmHg 69%
    20:00 +27°C° 0 mm 4 mps 759 mmHg 73%
    21:00 +27°C° 0 mm 3 mps 760 mmHg 77%
    22:00 +27°C° 0 mm 3 mps 760 mmHg 76%
    23:00 +27°C° 0 mm 3 mps 759 mmHg 76%

    24 January, Thursday

    Time Temperature Precipitation Wind Pressure Humidity
    00:00 +27°C° 0 mm 3 mps 759 mmHg 75%
    01:00 +27°C° 0.1 mm 3 mps 759 mmHg 76%
    02:00 +27°C° 0.1 mm 3 mps 759 mmHg 76%
    03:00 +27°C° 0.1 mm 3 mps 759 mmHg 76%
    04:00 +27°C° 0.1 mm 3 mps 759 mmHg 77%
    05:00 +27°C° 0.1 mm 3 mps 759 mmHg 78%
    06:00 +26°C° 0.1 mm 3 mps 760 mmHg 78%
    07:00 +27°C° 0.1 mm 3 mps 760 mmHg 76%
    08:00 +27°C° 0.1 mm 4 mps 761 mmHg 73%
    09:00 +28°C° 0.1 mm 4 mps 761 mmHg 71%
    10:00 +28°C° 0 mm 4 mps 761 mmHg 68%
    11:00 +29°C° 0 mm 4 mps 760 mmHg 64%
    12:00 +29°C° 0 mm 4 mps 760 mmHg 61%
    13:00 +30°C° 0 mm 5 mps 759 mmHg 59%
    14:00 +30°C° 0 mm 5 mps 758 mmHg 57%
    15:00 +32°C° 0 mm 5 mps 757 mmHg 54%
    16:00 +30°C° 0 mm 5 mps 758 mmHg 59%
    17:00 +29°C° 0 mm 4 mps 758 mmHg 63%
    18:00 +28°C° 0 mm 4 mps 758 mmHg 68%
    19:00 +28°C° 0 mm 4 mps 759 mmHg 71%
    20:00 +27°C° 0 mm 4 mps 759 mmHg 74%
    21:00 +27°C° 0 mm 3 mps 760 mmHg 77%
    22:00 +27°C° 0 mm 3 mps 760 mmHg 76%
    23:00 +27°C° 0 mm 3 mps 760 mmHg 76%
    Show more